Rochester, MN

11:06 PM CDT on March 29, 2017 (GMT -0500)
Rochester International

Weather History for KRST - April, 2014

Change the Weather History Date:

Friday, April 18, 2014

  Actual Average Record
Temperature  
Mean Temperature 41 °F 48 °F  
Max Temperature 54 °F 59 °F 89 °F (1985)
Min Temperature 27 °F 37 °F 16 °F (1983)
Degree Days  
Heating Degree Days 24 17  
Month to date heating degree days 452 380  
Since 1 July heating degree days 8432 7252  
Cooling Degree Days 0 0  
Month to date cooling degree days 0 0  
Year to date cooling degree days 0 0  
Moisture  
Dew Point 28 °F    
Average Humidity 65    
Maximum Humidity 92    
Minimum Humidity 38    
Precipitation  
Precipitation 0.00 in 0.11 in 0.90 in (1930)
Month to date precipitation 2.15 1.80  
Year to date precipitation 6.06 5.37  
Snow  
Snow 0.00 in 0.10 in 2.00 in (1939)
Month to date snowfall 5.1 2.4  
Since 1 July snowfall 59.1 51.0  
Snow Depth 0.00 in    
Sea Level Pressure  
Sea Level Pressure 30.34 in    
Wind  
Wind Speed 8 mph (SE)    
Max Wind Speed 17 mph    
Max Gust Speed 20 mph    
Visibility 7 miles    
Events      
T = Trace of Precipitation, MM = Missing Value Source: NWS Daily Summary

Daily Weather History Graph

Daily Weather History Graph

Search for Another Location

Airport or City:

Trip Planner

Search our weather history database for the weather conditions in past years. The results will help you decide how hot, cold, wet, or windy it might be!

Date:

Astronomy

Apr. 18, 2014 Rise Set
Actual Time 6:21 AM CDT 7:57 PM CDT
Civil Twilight 5:51 AM CDT 8:27 PM CDT
Nautical Twilight 5:14 AM CDT 9:04 PM CDT
Astronomical Twilight 4:35 AM CDT 9:44 PM CDT
Moon 11:47 PM CDT (4/18) 8:39 AM CDT (4/18)
Length of Visible Light 14h 36m
Length of Day
13h 35m
Waning Gibbous, 87% of the Moon is Illuminated
Apr 18
Waning Gibbous
Apr 22
Last Quarter
Apr 29
New
May 6
First Quarter
May 14
Full

Hourly Weather History & Observations

Time (CDT) Temp. Windchill Dew Point Humidity Pressure Visibility Wind Dir Wind Speed Gust Speed Precip Events Conditions
12:54 AM 30.0 °F 26.5 °F 26.1 °F 85% 30.36 in 5.0 mi South 3.5 mph - N/A   Clear
1:54 AM 28.9 °F 23.9 °F 25.0 °F 85% 30.36 in 5.0 mi SW 4.6 mph - N/A   Clear
2:54 AM 30.0 °F 26.5 °F 25.0 °F 82% 30.36 in 6.0 mi SW 3.5 mph - N/A   Haze
3:54 AM 30.0 °F 26.5 °F 25.0 °F 82% 30.36 in 5.0 mi West 3.5 mph - N/A   Haze
4:54 AM 30.0 °F - 25.0 °F 82% 30.37 in 5.0 mi Calm Calm - N/A   Haze
5:54 AM 28.0 °F 24.2 °F 24.1 °F 85% 30.36 in 3.0 mi SSE 3.5 mph - N/A   Overcast
6:30 AM 28.9 °F 25.2 °F 26.1 °F 89% 30.33 in 2.0 mi South 3.5 mph - N/A   Overcast
6:54 AM 28.9 °F 25.2 °F 26.1 °F 89% 30.38 in 2.5 mi East 3.5 mph - N/A   Overcast
7:41 AM 32.0 °F 27.5 °F 28.0 °F 85% 30.35 in 3.0 mi East 4.6 mph - N/A   Overcast
7:54 AM 32.0 °F - 28.0 °F 85% 30.40 in 2.5 mi Calm Calm - N/A   Overcast
8:05 AM 32.0 °F - 28.0 °F 85% 30.36 in 3.0 mi Calm Calm - N/A   Overcast
8:54 AM 34.0 °F 28.0 °F 28.9 °F 82% 30.40 in 4.0 mi East 6.9 mph - N/A   Haze
9:54 AM 37.9 °F 31.5 °F 28.9 °F 70% 30.41 in 8.0 mi SE 9.2 mph - N/A   Scattered Clouds
10:54 AM 41.0 °F 34.3 °F 28.0 °F 60% 30.40 in 10.0 mi ESE 11.5 mph - N/A   Mostly Cloudy
11:54 AM 44.1 °F 39.0 °F 28.0 °F 53% 30.39 in 10.0 mi SE 9.2 mph - N/A   Clear
12:54 PM 46.0 °F 43.1 °F 28.0 °F 50% 30.39 in 10.0 mi South 5.8 mph - N/A   Clear
1:54 PM 48.9 °F - 26.1 °F 41% 30.38 in 10.0 mi SSE 4.6 mph - N/A   Clear
2:54 PM 51.1 °F - 28.9 °F 43% 30.36 in 10.0 mi ESE 8.1 mph - N/A   Clear
3:54 PM 53.1 °F - 28.9 °F 40% 30.33 in 10.0 mi East 6.9 mph - N/A   Clear
4:54 PM 53.1 °F - 28.9 °F 40% 30.30 in 10.0 mi ESE 12.7 mph - N/A   Clear
5:54 PM 54.0 °F - 30.9 °F 41% 30.28 in 10.0 mi ESE 13.8 mph - N/A   Scattered Clouds
6:54 PM 52.0 °F - 30.9 °F 45% 30.27 in 10.0 mi SE 15.0 mph - N/A   Clear
7:54 PM 46.0 °F 41.0 °F 32.0 °F 58% 30.27 in 10.0 mi ESE 10.4 mph - N/A   Clear
8:54 PM 45.0 °F 38.9 °F 28.9 °F 53% 30.25 in 10.0 mi ESE 12.7 mph - N/A   Clear
9:54 PM 43.0 °F 37.2 °F 30.0 °F 60% 30.26 in 10.0 mi SE 10.4 mph - N/A   Clear
10:54 PM 42.1 °F 35.2 °F 28.9 °F 60% 30.24 in 10.0 mi ESE 12.7 mph - N/A   Clear
11:54 PM 42.1 °F 34.5 °F 28.9 °F 60% 30.24 in 10.0 mi SE 15.0 mph - N/A   Clear